Snowmass, CO

5:37 PM MDT on April 18, 2015 (GMT -0600)
Capitol Creek Valley | | Change Station
CLOSE
Current Station
Personal Weather Station
Location: Snowmass, CO
Elevation: 7441 ft
Nearby Weather Stations

Elev 7441 ft 39.29 °N, 107.01 °W | Updated 19 seconds ago

Overcast
Overcast
33.1 °F
Feels Like 26 °F
N
8.3
Wind Variable Wind from NW
Gusts 8.3 mph

Today
High -- | Low -- °F
--% Chance of Precip.
Yesterday
High -- | Low -- °F
Precip. -- in
6:27 AM 7:48 PM
New Moon, 0% visible
Pressure 29.96 in
Visibility 8.0 miles
Clouds Mostly Cloudy 1600 ft
Overcast 7000 ft
Windchill 26 °F
Dew Point 29 °F
Humidity 86%
Rainfall 0.14 in
Snow Depth Not available.
UV 1 out of 12
Pollen 3.80 out of 12
Air Quality Not available.
Flu Activity Local Activity
METAR KASE 182253Z COR 35005KT 8SM BKN016 OVC070 01/M02 A2998 RMK AO2 SNE00 SLP143 P0000 T00061022

More Conditions Fewer Conditions

Pressure 29.96 in
Visibility 8.0 miles
Clouds Mostly Cloudy 1600 ft
Overcast 7000 ft
Windchill 26 °F
Dew Point 29 °F
Humidity 86%
Rainfall 0.14 in
Snow Depth Not available.
UV 1 out of 12
Pollen 3.80 out of 12
Air Quality Not available.
Flu Activity Local Activity
METAR KASE 182253Z COR 35005KT 8SM BKN016 OVC070 01/M02 A2998 RMK AO2 SNE00 SLP143 P0000 T00061022

More Conditions Fewer Conditions

10-Day Weather Forecast

Almanac

Astronomy

Apr. 18, 2015 Rise Set
Actual Time
Civil Twilight
Nautical Twilight
Astronomical Twilight
Moon
Length of Visible Light
Length of Day
Tomorrow will be .
, % of the Moon is Illuminated

Today's Extremes

State Highs State Lows

Community

WunderPhotos

Upload Photos

1,814,576 photos uploaded!

WunderBlogs® & News

Nearby

Air Quality

  Air Quality AQ Index Pollutant
Not available.

Snow Depth

Station Depth Elevation

Earthquake Activity

City Distance Mag. Time & Date
Minimum magnitude displayed is 2.5.

Coastal Water Temperatures

Place Temperature

Stations

Nearby Weather Stations

Station Location Temp. Windchill Dew Point Humidity Wind Precip. Elev Updated Type
                   
Winter Storm Warning
Statement as of 3:15 PM MDT on April 18, 2015

... Winter Storm Warning remains in effect until midnight MDT
tonight...

* locations include the cities of... Aspen... Vail... Snowmass...
Crested Butte... Taylor Park... Marble.

* Timing... periods of snow... locally heavy at times... through
tonight.

* Snow accumulation... an additional 2 to 4 inches... bringing
totals of up 10 to 20 inches. Local amounts in excess of 2
feet.

* Winds... north 10 to 20 mph with gusts up to 30 mph.

* Visibility... less than one mile at times in heavy snow.

* Impacts... roads will be slick with slush or snow over mountain
passes. Backcountry travel will be difficult.

Precautionary/preparedness actions...

A Winter Storm Warning means significant amounts of snow are
expected or occurring. Strong winds and blowing snow are also
possible. This will make travel very hazardous or impossible.